This demonstration page uses our WeatherBlox Daily Observations layout. Learn more.

Left ArrowRight Arrow

Hourly Observations for September 3, 2020

Temp ( °F °C ) Dew Point ( °F °C ) Humidity (%) Winds ( mph kmh ) Pressure ( in mb ) Visibility ( mi km ) Precip ( " mm )
12:53 am 00:53 Clear 78 25.6 59 15 52 52 SE 6 9 29.83 1010 10 16 0.00 0.00
1:53 am 01:53 Clear 76 24.4 59 15 56 56 ESE 5 7 29.83 1010 10 16 0.00 0.00
2:53 am 02:53 Clear 75 23.9 58 14.4 55 55 ESE 7 11 29.83 1010 10 16 0.00 0.00
3:53 am 03:53 Clear 73 22.8 60 15.6 64 64 E 3 6 29.82 1010 10 16 0.00 0.00
4:53 am 04:53 Clear 69 20.6 57 13.9 66 66 N 7 11 29.82 1010 10 16 0.00 0.00
5:53 am 05:53 Clear 68 20 57 13.9 68 68 N 6 9 29.82 1010 10 16 0.00 0.00
6:53 am 06:53 Clear 67 19.4 58 14.4 73 73 NNE 5 7 29.83 1010 10 16 0.00 0.00
7:53 am 07:53 Sunny 67 19.4 58 14.4 73 73 N 7 11 29.84 1011 10 16 0.00 0.00
8:53 am 08:53 Sunny 75 23.9 63 17.2 66 66 NE 6 9 29.85 1011 10 16 0.00 0.00
9:53 am 09:53 Sunny 81 27.2 63 17.2 54 54 SE 3 6 29.86 1011 10 16 0.00 0.00
10:53 am 10:53 Sunny 86 30 63 17.2 46 46 undefined N/A 29.88 1012 10 16 0.00 0.00
11:53 am 11:53 Sunny 90 32.2 60 15.6 37 37 VRB 6 9 29.88 1012 10 16 0.00 0.00
12:53 pm 12:53 Sunny 94 34.4 56 13.3 28 28 Calm 29.86 1011 10 16 0.00 0.00
1:53 pm 13:53 Sunny 95 35 55 12.8 26 26 undefined N/A 29.84 1011 10 16 0.00 0.00
2:53 pm 14:53 Mostly Sunny 98 36.7 54 12.2 23 23 SSE 5 7 29.82 1010 10 16 0.00 0.00
3:53 pm 15:53 Partly Cloudy 100 37.8 52 11.1 20 20 E 10 17 29.79 1009 10 16 0.00 0.00
4:53 pm 16:53 Sunny 100 37.8 50 10 18 18 NE 9 15 29.77 1008 10 16 0.00 0.00
5:53 pm 17:53 Mostly Sunny 99 37.2 49 9.4 18 18 ESE 10 17 29.76 1008 10 16 0.00 0.00
6:53 pm 18:53 Sunny 99 37.2 48 8.9 18 18 E 10 17 29.76 1008 10 16 0.00 0.00
7:53 pm 19:53 Sunny 96 35.6 50 10 21 21 E 15 24 29.79 1009 10 16 0.00 0.00
8:53 pm 20:53 Clear 92 33.3 49 9.4 23 23 E 13 20 29.82 1010 10 16 0.00 0.00
9:53 pm 21:53 Clear 89 31.7 50 10 26 26 E 17 28 29.86 1011 10 16 0.00 0.00
10:53 pm 22:53 Clear 87 30.6 55 12.8 34 34 E 17 28 29.88 1012 10 16 0.00 0.00
11:53 pm 23:53 Clear 84 28.9 55 12.8 37 37 E 13 20 29.89 1012 10 16 0.00 0.00

Powered by AerisWeather